Location: Azul
(36.7830°S, 59.8500°W)
Time: 01:23:45
(UTC-03:00)

UWE-3 - Pass Details

Date: 25 October 2021
Orbit: 584 x 681 km, 97.7° (Epoch: 04 December)

Event Time Altitude Azimuth Distance (km) Brightness Sun altitude
Exits shadow 02:44:53 - 72° (ENE) 2,659 ? -33.3°
Reaches altitude 10° 02:48:13 10° 106° (ESE) 2,022 ? -32.9°
Maximum altitude 02:49:04 11° 117° (ESE) 1,997 ? -32.8°
Drops below altitude 10° 02:49:56 10° 128° (SE) 2,040 ? -32.7°
Sets 02:54:09 0° 167° (SSE) 2,992 ? -32.2°
